Regional Weather Roundup
Issued by NWS

Home | Current Version | Previous Version | Graphics & Text | Print | Product List | Glossary On
Versions: 1 2 3 4 5 6 7 8 9 10 11 12 13 14 15 16 17 18 19 20 21 22 23 24 25 26 27
000
ASUS45 KBOU 220007
RWRCO

WEATHER ROUNDUP FOR COLORADO
NATIONAL WEATHER SERVICE DENVER/BOULDER CO
600 PM MDT WED JUN 21 2017

NOTE: "FAIR" INDICATES FEW OR NO CLOUDS BELOW 12000 FEET WITH NO
SIGNIFICANT WEATHER AND/OR OBSTRUCTIONS TO VISIBILITY.

COZ001>005-013-030-031-220100-
...NORTHWEST COLORADO...

CITY           SKY/WX    TMP DP  RH WIND       PRES   REMARKS
CRAIG          FAIR      79  46  31 CALM      30.07F
HAYDEN         FAIR      77  41  27 E10       30.12F
MEEKER         FAIR      85  35  16 N7        30.09S
RABBIT EARS PA MOCLDY    57  34  41 W8G21     30.45F
STEAMBOAT SPGS FAIR      79  40  25 NE7       30.13F
WALDEN         CLOUDY    64  37  36 SW16G30   30.28S
$$

COZ006>008-011-220100-
...WEST CENTRAL VALLEYS...

CITY           SKY/WX    TMP DP  RH WIND       PRES   REMARKS
GRAND JUNCTION FAIR      98  30   9 N14G21    29.89F
MONTROSE       FAIR      95  30  10 CALM      29.99F
EAGLE          MOSUNNY   84  37  18 W13       30.14R
RIFLE          FAIR      92  32  12 W7        29.99F
DELTA          FAIR     101  26   7 NW7       29.93F
NUCLA          FAIR      91  27   9 E3        30.04F
$$

COZ017>023-064>068-220100-
...SOUTHWEST COLORADO...

CITY           SKY/WX    TMP DP  RH WIND       PRES   REMARKS
DURANGO        FAIR      89  30  12 N12       30.09F
CORTEZ         LGT RAIN  90  31  12 MISG      30.06R
PAGOSA SPRINGS FAIR      85  26  11 N3        30.19F
TELLURIDE      FAIR      78  28  15 W5        30.36S
WOLF CREEK PAS FAIR      61  32  33 SW8G18    30.62F
$$

COZ009-010-012-014-032>034-037-058>063-220100-
...CENTRAL COLORADO...

CITY           SKY/WX    TMP DP  RH WIND       PRES   REMARKS
ASPEN          FAIR      80  33  18 VRB5      30.22F
BUENA VISTA    FAIR      83  22  10 W15G25    30.19F
COPPER MTN     FAIR      64  19  17 W16G24    30.59R
BERTHOUD PASS  FAIR      52  37  58 NW8       30.60F
COTTONWOOD PAS FAIR      81  10   7 NW9       30.38F
GUNNISON       FAIR      81  36  19 NE7       30.18F
KREMMLING      NOT AVBL
LEADVILLE      FAIR      67  26  21 NW12G24   30.40R
MONARCH PASS   FAIR      66  21  18 NW21G37   30.68F
SALIDA         FAIR      87  21   9 W17       30.22S
SUNLIGHT       FAIR      68  30  24 SW5       30.51F
WILKERSON PASS PTSUNNY   64  21  19 N10G20    30.53F
$$

COZ069>075-220100-
...SAN LUIS VALLEY/SANGRE DE CRISTO MOUNTAINS...

CITY           SKY/WX    TMP DP  RH WIND       PRES   REMARKS
ALAMOSA        FAIR      83  33  16 W21       30.16F
DEL NORTE      FAIR      85  26  11 N12G18    30.19F
LA VETA PASS   FAIR      64  41  42 MISG      30.52F
SAGUACHE       FAIR      86  28  12 NW14G21   30.19F
$$

COZ035-036-038>040-220100-
...NORTHERN COLORADO FRONT RANGE...

CITY           SKY/WX    TMP DP  RH WIND       PRES   REMARKS
DENVER INTL AP PTSUNNY   95  28   9 NW13      29.93F
DMNS CITY PARK   N/A     89  33  13 S8G21     29.93S
AURORA         PTSUNNY   90  34  13 SW15G24   29.97S
FRONT RANGE AP FAIR      93  30  10 CALM      29.95F
ERIE MUNI ARPT FAIR      96  28   8 NE10      29.90F
BOULDER MUN AP FAIR      95  36  12 E7        29.91S
CENTENNIAL     PTSUNNY   88  31  13 SW14G21   30.01R
BROOMFIELD     FAIR      90  36  14 W9        29.96S
FORT COLLINS   FAIR      90  39  16 NW13      29.92R
LONGMONT       FAIR      89  44  21 E3        29.92S
$$

COZ041-046-047-076>085-087-088-220100-
...PIKES PEAK/PALMER DIVIDE AND SOUTHERN FOOTHILLS...

CITY           SKY/WX    TMP DP  RH WIND       PRES   REMARKS
COLO. SPRINGS  PTSUNNY   84  35  17 NE14G26   30.07S
A. F. ACADEMY  TSTM      81  40  23 E3        30.10R
SCHRIEVER AFB  FAIR      83  36  18 N13G24    30.07F
CHEYENNE MTN   FAIR      78  39  24 CALM      30.08F
ELLICOTT       FAIR     N/A N/A N/A N22G36    30.05S SQUALL
FALCON           N/A     75  40  28 SE6       30.14F
FORT CARSON    FAIR      88  38  17 E5        30.02F
LIMON          FAIR      94  28   9 VRB3      29.94F
MONUMENT HILL  FAIR      79  32  18 NW33G39   30.14R
CANON CITY     SUNNY     95  39  14 E14       29.98F
WALSENBURG     FAIR      86  41  20 SW8       30.06F
TRINIDAD       FAIR      84  42  22 NE12      30.03R
$$

COZ042>045-048>051-090-091-220100-
...NORTHEAST COLORADO...

CITY           SKY/WX    TMP DP  RH WIND       PRES   REMARKS
GREELEY ARPT   FAIR      93  42  17 NW7       29.88S
AKRON          FAIR      96  31  10 VRB6G17   29.87F
BURLINGTON     FAIR      97  40  14 N10       29.83F
WRAY           FAIR     100  34  10 N10G23    29.79S
YUMA           NOT AVBL
STERLING       FAIR      95  45  17 NE6       29.81S
HOLYOKE        NOT AVBL
FORT MORGAN    FAIR      97  35  11 CALM      29.86F
$$

COZ086-089-092>099-220100-
...SOUTHEAST COLORADO...

CITY           SKY/WX    TMP DP  RH WIND       PRES   REMARKS
PUEBLO         FAIR      91  45  20 SE13      29.92F
LA JUNTA       FAIR      95  43  16 W15       29.85F
LAMAR          FAIR     101  41  12 CALM      29.77F
SPRINGFIELD      N/A     88  57  34 NE15      29.85F
$$




USA.gov is the U.S. government's official web portal to all federal, state and local government web resources and services.